User: anonymous   Login
Location: Mexico
(19.4000°N, 99.1500°W)
Time: 18:36:33
(UTC-06:00)
Language:

ISS - Orbit

View from above orbital plane
View from above orbital plane
View from above satellite
View from above satellite

Ground track
Ground track

The orbit data is extracted from the following two-line orbital elements,

1 25544U 98067A   18319.46206342  .00016717  00000-0  10270-3 0  9017
2 25544  51.6412 344.8759 0004853  48.4502 311.7066 15.53983942 22034
Epoch (UTC): 15 November 2018 11:05:22
Eccentricity: 0.0004853
inclination: 51.6412°
perigee height: 402 km
apogee height: 408 km
right ascension of ascending node: 344.8759°
argument of perigee: 48.4502°
revolutions per day: 15.53983942
mean anomaly at epoch: 311.7066°
orbit number at epoch: 2203

The dashed part of the orbit path shows where the satellite is in the earth's shadow,  

DLR